Regional Weather Roundup
Issued by NWS Albany, NY

Home | Current Version | Previous Version | Graphics & Text | Print | Product List | Glossary Off
Versions: 1 2 3 4 5 6 7 8 9 10 11 12 13 14 15 16 17 18 19 20 21 22 23 24 25 26 27 28 29 30 31 32 33 34 35 36 37 38 39 40 41 42 43 44 45 46 47 48 49 50

000
ASUS41 KALY 261210
RWRALY

NEW YORK STATE HOURLY WEATHER ROUNDUP
NATIONAL WEATHER SERVICE ALBANY NY
700 AM EST MON JAN 26 2015

NOTE: "FAIR" INDICATES FEW OR NO CLOUDS BELOW 12,000 FEET WITH NO
SIGNIFICANT WEATHER AND/OR NO OBSTRUCTIONS TO VISIBILITY.

NYZ032-033-038>043-046>054-057>066-NYZ062>081-261300-
EAST


CITY           SKY/WX    TMP DP  RH WIND       PRES   REMARKS
ALBANY         CLOUDY    10  -2  58 N9        30.11R WCI  -3
GLENS FALLS    MOCLDY     6  -3  66 N6        30.13S WCI  -4
POUGHKEEPSIE   CLOUDY    17   2  51 N9        30.06R WCI   6
NEWBURGH       CLOUDY    16   3  57 E12       30.03R WCI   3
MONTGOMERY     CLOUDY    15   1  53 NE13      30.02S WCI   1
WHITE PLAINS   CLOUDY    20   4  50 NE9       29.99S WCI   9
ISLIP          LGT SNOW  25  12  58 NE13G24   30.00S WCI  14
NEW YORK CITY  FLURRIES  24  13  62 NE22      30.01S WCI   9
CENTRAL PARK   LGT SNOW  24  12  60 NE14G23   30.02S WCI  12
$$

NYZ005>009-017-018-044>046-055-056-261300-
CENTRAL


CITY           SKY/WX    TMP DP  RH WIND       PRES   REMARKS
FULTON         CLOUDY     4  -6  63 NE5       30.03S WCI  -5
SYRACUSE       MOCLDY     4  -2  76 NE7       30.02S WCI  -8
ROME           CLOUDY     5  -6  60 E6        30.06F WCI  -6
ELMIRA         LGT SNOW  13   4  67 E8        29.92S WCI   2
BINGHAMTON     LGT SNOW   6   1  80 E7        29.86S WCI  -6
MONTICELLO     CLOUDY    12   1  62 E12G17    29.92R WCI  -2
$$

NYZ026>034-041>043-261300-
NORTH


CITY           SKY/WX    TMP DP  RH WIND       PRES   REMARKS
WATERTOWN      PTCLDY     0  -9  65 NE13      30.08F WCI -18
FORT DRUM      NOT AVBL
MASSENA        PTCLDY   -14 -20  74 CALM      30.18R
SARANAC LAKE   PTCLDY   -21 -26  77 CALM      29.97R
PLATTSBURGH    PTCLDY    -2  -7  79 W3        30.19R
$$

NYZ001>004-010>016-019>021-261300-
WEST


CITY           SKY/WX    TMP DP  RH WIND       PRES   REMARKS
NIAGARA FALLS  CLOUDY    13   4  67 E12       29.95S WCI  -1
BUFFALO        CLOUDY    13   1  59 NE14      29.93S WCI  -2
DUNKIRK        FLURRIES  15   4  61 NE13      29.89R WCI   1
JAMESTOWN      CLOUDY    12   7  79 E9        29.76R WCI   0
WELLSVILLE     LGT SNOW   9   4  80 E6        29.79S WCI  -1
ROCHESTER      CLOUDY    12  -2  53 E10       30.00S WCI  -1
PENN YAN       CLOUDY    12   4  70 VRB6      29.94S WCI   3
$$

             KEY
       WCI = WIND CHILL INDEX
       VSB = VISIBILITY
       HX  = HEAT INDEX
$$


USA.gov is the U.S. government's official web portal to all federal, state and local government web resources and services.